Location: Stoke Bliss
(52.2667°N, 2.5167°W)
Time: 18:35:48
(UTC+00:00)

Cosmos 2278 - Visible Passes

Search period start: 22 June 2021 00:00
Search period end: 02 July 2021 00:00
Orbit: 841 x 852 km, 71.1° (Epoch: 21 June)

Date Brightness Start Highest point End Pass type
(mag) Time Alt. Az. Time Alt. Az. Time Alt. Az.
22 Jun 7.2 00:20:08 10° NNW 00:22:10 12° N 00:24:13 10° NNE visible
22 Jun 6.4 02:04:06 10° NNW 02:08:35 23° NE 02:13:03 10° E visible
22 Jun 7.0 22:18:35 10° NW 22:21:36 14° NNW 22:24:38 10° NNE visible
23 Jun 7.1 00:06:26 10° NNW 00:08:27 12° N 00:10:28 10° NNE visible
23 Jun 6.4 01:50:25 10° NNW 01:54:53 23° NE 01:59:18 10° E visible
23 Jun 6.9 22:04:50 10° NW 22:07:53 14° NNW 22:10:57 10° NNE visible
23 Jun 7.0 23:52:44 10° NNW 23:54:43 12° N 23:56:42 10° NNE visible
24 Jun 6.4 01:36:45 10° NNW 01:41:10 23° NE 01:45:34 10° E visible
24 Jun 6.9 21:51:04 10° NW 21:54:10 15° NNW 21:57:16 10° NNE visible
24 Jun 7.0 23:39:02 10° NNW 23:41:00 12° N 23:42:57 10° NNE visible
25 Jun 6.3 01:23:04 10° NNW 01:27:28 22° NE 01:31:50 10° E visible
25 Jun 6.8 21:37:19 10° NW 21:40:27 15° NNW 21:43:35 10° NNE visible
25 Jun 6.9 23:25:20 10° NNW 23:27:17 12° N 23:29:12 10° NNE visible
26 Jun 6.3 01:09:24 10° NNW 01:13:45 22° NNE 01:18:05 10° E visible
26 Jun 4.0 02:53:12 10° NNW 02:58:54 74° ENE 03:04:32 10° SE visible
26 Jun 6.8 21:23:34 10° NW 21:26:44 15° NNW 21:29:54 10° NNE visible
26 Jun 6.9 23:11:38 10° NNW 23:13:33 12° N 23:15:28 10° NNE visible
27 Jun 6.3 00:55:43 10° NNW 01:00:03 22° NNE 01:04:21 10° E visible
27 Jun 4.0 02:39:31 10° NNW 02:45:12 73° ENE 02:50:51 10° SE visible
27 Jun 6.9 22:57:57 10° NNW 22:59:50 12° N 23:01:43 10° NNE visible
28 Jun 6.3 00:42:03 10° NNW 00:46:20 21° NNE 00:50:36 10° E visible
28 Jun 4.1 02:25:50 10° NNW 02:31:31 71° ENE 02:37:09 10° SE visible
28 Jun 6.8 22:44:15 10° NNW 22:46:06 11° N 22:47:58 10° NNE visible
29 Jun 6.2 00:28:22 10° NNW 00:32:37 21° NNE 00:36:52 10° E visible
29 Jun 4.1 02:12:10 10° NNW 02:17:50 70° ENE 02:23:27 10° SE visible
29 Jun 6.8 22:30:32 10° NNW 22:32:23 11° N 22:34:13 10° NNE visible
30 Jun 6.2 00:14:41 10° NNW 00:18:55 21° NNE 00:23:07 10° E visible
30 Jun 4.1 01:58:28 10° NNW 02:04:09 68° NE 02:09:46 10° SE visible
30 Jun 6.7 22:16:50 10° NNW 22:18:40 11° N 22:20:29 10° NNE visible
01 Jul 6.2 00:01:01 10° NNW 00:05:13 21° NNE 00:09:23 10° E visible
01 Jul 4.1 01:44:47 10° NNW 01:50:27 67° NE 01:56:05 10° SE visible
01 Jul 6.7 22:03:09 10° NNW 22:04:56 11° N 22:06:44 10° NNE visible
01 Jul 6.2 23:47:20 10° NNW 23:51:30 20° NNE 23:55:39 10° E visible
